Wind_Speed
7 7 7 7 7 6 7 7 8 9 9 11 12 13 14 15 15 16 16 17 17 18 18 19 20 20 21 22 24 25 27 28 29 30 31 32 32 32 32 32 33 33 33 33 31 31 31 32 31 30 27 27 27 26 28 31 34 37 37 38 40 40 39 39 44 51 52 47 46 46 44 43 45 46 45 44 42 40 39 39 40 41 41 40 39
5 6 6 6 7 7 8 8 9 10 10 11 12 13 14 15 16 17 17 18 19 20 21 21 22 23 24 25 26 27 28 29 31 32 34 35 36 36 36 37 37 38 37 37 36 34 34 34 33 33 31 31 31 28 27 27 28 32 35 36 39 39 38 38 42 48 52 50 47 46 45 44 46 48 48 48 46 43 42 41 41 41 41 40 40
6 6 6 7 8 9 10 11 12 13 14 14 15 15 16 16 17 17 18 19 20 21 23 24 26 27 28 29 30 31 33 34 35 36 37 38 40 40 41 41 41 41 41 41 40 39 39 38 37 35 33 34 34 32 31 29 27 28 30 32 36 39 38 37 39 44 50 50 47 47 47 46 46 47 47 48 47 46 45 44 42 41 42 42 41
7 6 7 8 9 10 11 13 14 15 16 17 17 18 18 18 19 20 20 21 22 23 25 27 29 30 32 33 35 36 37 38 39 40 40 41 42 43 43 43 43 44 44 44 44 43 43 43 42 39 37 37 37 36 34 32 31 30 30 29 30 33 36 37 39 42 45 48 49 48 46 47 48 47 45 46 47 47 47 45 44 44 44 44 43
7 7 8 9 10 11 13 14 15 16 17 17 18 18 19 20 21 22 23 24 26 27 28 30 32 34 36 37 39 40 41 42 43 43 43 43 43 43 44 44 44 44 45 46 46 45 45 46 46 44 43 42 41 39 37 36 34 33 33 32 30 29 31 34 38 41 42 46 49 47 45 46 48 48 47 46 46 47 48 48 47 47 47 47 46
8 8 10 11 12 13 14 15 16 17 18 18 18 19 20 21 22 23 25 26 28 30 31 33 35 37 39 41 42 44 44 45 46 46 46 45 45 45 44 44 45 45 45 46 46 47 47 48 48 47 47 46 46 44 42 40 39 37 36 35 33 31 30 31 33 37 42 46 48 46 45 46 46 48 49 48 47 48 48 49 50 50 50 50 49
10 11 12 13 14 15 16 18 19 19 20 20 20 21 21 22 24 25 27 28 29 31 33 35 37 39 41 43 45 46 47 48 49 49 49 48 47 47 46 46 46 47 47 47 47 48 48 49 50 49 49 49 49 48 46 44 43 42 40 38 36 34 34 33 32 34 38 43 47 47 46 45 45 46 48 48 48 50 50 50 52 53 53 52 50
13 14 15 16 18 19 20 21 21 22 22 22 23 23 24 25 27 28 29 30 32 34 35 37 39 41 42 44 46 47 48 50 50 50 49 49 49 49 49 49 49 49 49 49 49 49 49 50 51 51 51 51 50 50 49 48 46 46 44 42 39 37 36 36 35 35 36 40 44 46 46 45 45 44 45 46 50 54 55 53 53 53 52 52 51
16 17 18 20 22 23 23 24 25 25 25 25 25 26 27 28 30 31 32 33 35 36 38 40 42 43 44 45 46 47 48 49 49 48 49 49 50 50 50 50 50 51 51 51 51 51 50 51 51 52 52 51 51 50 50 49 47 48 48 46 43 41 39 38 38 38 38 40 42 44 44 46 46 45 45 48 52 56 56 54 53 53 52 51 51
19 19 20 22 24 25 26 27 27 27 27 27 27 28 30 31 32 33 34 35 37 38 40 42 43 45 46 47 47 47 48 48 47 47 47 49 50 51 52 52 52 53 54 54 55 54 53 52 52 52 52 52 51 50 50 48 47 48 49 48 46 44 42 41 40 40 41 42 43 43 42 45 48 48 48 49 51 52 53 54 55 54 52 52 53
20 20 22 23 25 27 28 29 30 29 29 28 29 31 32 34 35 35 36 37 39 40 42 43 45 46 46 47 48 48 48 48 48 48 49 49 49 50 52 54 55 55 56 56 57 58 57 55 54 53 53 52 52 51 50 49 47 47 48 48 47 46 44 44 44 43 43 44 45 44 44 46 49 48 47 48 47 48 51 53 54 54 54 55 56
21 22 23 25 27 29 30 31 31 31 30 30 31 33 35 36 37 38 38 39 40 41 43 44 45 45 46 47 48 49 50 50 50 51 52 52 51 50 51 54 56 57 58 58 59 60 60 59 57 56 55 54 52 52 51 50 49 47 47 47 48 47 47 47 46 45 45 45 46 47 47 47 48 47 45 46 47 47 49 51 53 55 56 57 59
23 24 25 26 27 29 31 32 32 31 30 31 33 35 36 37 38 39 40 41 42 43 44 44 45 45 46 47 49 50 52 53 53 54 54 54 53 51 51 55 57 58 59 60 60 60 59 59 59 58 57 55 53 51 51 51 50 48 47 47 47 49 49 49 49 48 47 47 48 50 50 49 49 47 45 45 45 46 47 50 53 55 56 58 60
24 25 25 26 28 30 32 32 31 30 31 32 35 36 37 38 39 40 41 42 43 44 44 45 45 46 47 49 50 52 54 54 54 55 54 53 52 50 51 53 55 56 59 59 58 58 58 58 58 59 58 56 54 52 51 51 50 49 48 47 47 48 49 50 51 50 49 49 50 52 51 50 50 49 45 44 45 46 49 50 51 54 56 57 58
24 25 25 27 29 31 31 30 30 31 33 35 37 38 38 39 40 40 41 42 43 44 44 45 46 47 48 50 51 54 55 53 53 53 52 50 48 46 46 49 52 55 59 59 58 57 58 58 58 58 59 58 56 53 51 49 48 48 49 49 50 50 50 51 51 52 52 51 52 54 53 51 50 49 47 46 47 48 49 49 48 49 50 53 55
24 25 27 29 31 31 30 30 31 32 35 37 38 39 40 40 41 41 42 42 43 44 44 45 47 48 49 50 51 55 55 52 51 51 49 46 44 42 42 45 48 52 55 55 54 54 55 54 54 55 56 57 57 53 47 44 44 46 48 50 50 50 51 51 51 52 53 53 53 54 54 53 50 48 47 47 48 48 47 45 44 44 46 50 54
25 28 30 31 30 30 30 30 32 35 37 38 39 40 41 41 41 41 42 43 44 45 45 46 47 48 50 50 50 53 55 52 49 48 45 42 40 39 39 41 43 45 47 48 47 48 49 48 47 47 49 50 51 48 42 39 42 45 48 50 51 52 53 52 51 50 52 53 54 54 55 54 52 49 46 46 48 47 45 44 45 44 46 50 53
28 30 30 30 30 30 30 32 34 36 38 39 39 40 41 41 41 41 42 44 45 45 46 48 48 48 49 49 49 50 53 50 45 44 42 38 35 35 35 37 39 40 42 43 41 42 43 42 39 39 42 43 43 41 37 37 40 44 47 50 52 54 57 56 54 52 50 50 52 54 56 56 54 51 49 46 46 46 46 48 48 46 47 50 54
29 30 30 30 30 30 31 33 36 37 38 38 39 40 41 41 41 41 42 44 45 46 46 48 49 48 47 48 47 46 48 48 43 39 37 33 30 30 32 36 38 38 40 41 40 38 39 39 37 36 38 39 39 37 35 35 38 42 46 48 52 56 58 57 54 51 50 50 51 53 55 57 55 53 51 48 46 46 48 51 51 48 49 53 54
31 31 32 31 31 31 33 35 36 37 38 38 39 40 40 40 41 42 43 44 45 46 46 46 48 48 46 46 45 43 44 44 39 35 32 29 26 27 31 34 37 39 40 42 42 42 41 39 37 34 33 34 35 35 35 35 36 39 42 45 51 56 57 55 52 49 48 49 51 52 54 56 55 54 53 51 48 47 48 51 52 52 52 54 53
31 32 32 31 31 33 35 36 37 37 37 38 39 39 39 39 40 42 43 43 44 45 45 45 46 47 45 44 44 41 39 38 35 31 29 27 26 27 31 34 36 39 42 43 44 45 43 40 38 36 35 37 38 38 39 39 38 40 42 45 47 49 49 51 52 51 50 50 51 52 53 54 55 54 54 53 52 50 48 50 52 54 55 55 53
31 31 31 31 32 34 35 36 36 37 37 37 38 38 38 38 39 41 41 42 43 44 45 44 44 45 44 42 42 39 35 32 31 29 29 29 28 28 31 34 35 37 41 43 44 45 45 44 44 43 41 40 39 39 40 39 39 41 44 45 45 44 44 46 48 50 52 53 52 52 52 52 53 54 54 54 54 52 50 49 50 53 56 57 56
31 31 31 32 33 35 36 36 36 36 36 36 37 37 37 38 39 39 39 40 42 43 43 42 42 43 43 42 39 36 32 30 30 31 31 32 31 30 31 33 34 35 38 42 44 45 45 45 45 44 41 40 39 39 40 40 40 41 42 42 43 44 44 46 47 49 51 53 54 55 54 53 53 53 54 55 54 54 52 50 49 50 53 56 57
32 31 31 33 34 35 36 35 35 35 35 35 36 36 37 37 38 38 37 38 40 41 41 40 40 41 42 41 38 34 32 33 34 34 34 35 35 33 31 31 32 33 35 39 40 41 42 42 41 40 40 40 40 40 41 42 42 43 43 43 44 44 45 47 48 48 49 52 55 56 55 55 54 53 54 54 54 53 52 51 49 49 50 52 54
31 31 32 34 35 35 35 35 35 34 34 34 35 36 36 37 37 36 36 36 37 39 39 39 38 39 40 39 38 37 37 39 38 37 38 38 36 33 31 31 31 32 34 37 38 39 40 40 38 38 38 38 40 41 42 41 40 41 41 42 43 44 45 47 47 48 50 52 54 55 56 56 55 54 53 53 52 51 51 51 49 47 47 47 49
31 31 33 35 35 35 35 35 34 33 33 33 34 34 34 35 35 35 34 34 35 36 37 38 38 38 39 39 41 42 42 43 43 42 41 39 37 34 34 34 35 34 35 38 39 40 41 40 38 37 37 37 39 41 42 42 40 39 39 40 41 42 44 46 47 49 50 52 53 55 56 55 54 53 50 49 49 50 51 50 48 46 45 44 45
31 32 34 35 35 34 34 34 34 33 32 32 33 33 32 32 33 33 32 32 34 35 36 37 38 38 40 41 43 44 44 44 45 44 41 40 39 39 40 40 40 39 40 42 43 44 44 43 42 41 39 39 40 41 43 43 41 40 40 40 41 43 44 44 45 47 48 51 53 55 55 53 52 52 50 48 48 49 48 48 47 45 44 43 43
32 33 34 34 34 33 33 33 33 32 32 32 32 32 31 30 31 30 29 29 32 35 37 38 39 39 40 42 44 45 45 44 44 43 41 40 40 40 40 41 41 42 44 45 46 46 44 43 42 41 39 39 41 43 44 44 43 43 43 42 42 42 42 42 43 44 46 48 50 52 53 50 48 49 49 48 47 47 47 46 45 45 43 42 42
32 33 33 33 33 33 32 32 32 31 32 32 32 31 30 28 29 30 28 27 29 33 36 37 37 37 39 40 42 43 44 43 41 39 38 36 35 35 37 38 39 40 41 41 42 43 42 39 39 39 39 40 43 44 45 46 46 46 45 43 41 41 41 41 42 42 42 42 45 49 50 48 45 45 46 46 45 45 45 44 44 44 43 43 43
32 33 33 32 32 32 32 31 31 30 31 32 32 31 29 26 25 27 28 27 26 29 32 34 34 34 35 37 37 38 40 40 38 36 35 33 32 33 35 35 35 35 35 36 38 40 39 38 39 39 40 42 43 44 45 47 47 47 45 44 42 41 41 41 41 39 37 36 41 47 46 43 40 39 41 44 45 44 44 43 43 42 43 44 44
33 33 32 32 32 32 32 31 30 30 30 31 31 32 31 28 23 21 24 27 27 27 29 31 30 29 30 34 35 34 35 36 35 35 35 35 34 33 33 33 33 33 33 35 38 39 39 40 42 42 42 42 43 44 45 46 46 46 45 44 44 43 42 41 39 37 34 31 34 41 44 44 42 38 37 40 41 42 43 42 42 42 43 45 45
33 32 31 31 31 31 30 30 30 30 30 30 29 29 31 32 28 22 20 22 25 27 29 30 30 28 29 30 32 34 34 34 34 34 35 34 33 32 31 32 34 35 34 35 38 39 40 41 43 43 43 42 43 44 46 46 47 46 45 45 44 43 42 40 37 34 32 30 29 32 37 42 44 42 41 42 42 43 43 43 43 43 43 45 45
31 31 30 30 30 30 29 29 29 29 29 29 28 28 28 31 32 30 24 21 20 21 24 27 30 31 32 31 31 32 32 32 32 32 32 32 34 33 32 32 33 34 33 33 35 37 37 37 38 39 40 42 43 44 45 46 47 46 45 44 43 41 39 37 34 32 31 29 28 28 30 34 38 39 40 42 43 43 43 43 43 42 43 44 45
29 29 29 29 30 29 29 28 28 29 28 27 26 27 27 28 30 33 33 30 26 22 20 21 24 29 32 32 30 30 30 30 30 29 29 31 33 33 33 33 31 30 29 29 30 31 31 32 34 36 38 41 43 43 44 44 45 45 43 41 39 37 35 33 32 31 30 27 27 28 29 30 34 37 39 40 41 41 42 42 42 41 42 44 45
28 27 26 27 28 28 28 27 27 28 27 25 24 25 26 26 27 29 32 34 35 32 29 25 24 26 29 31 30 30 30 30 28 28 29 31 31 31 32 31 29 27 26 25 25 26 28 30 33 34 37 39 41 41 41 41 42 41 39 37 35 33 31 29 30 31 29 27 27 28 28 29 31 35 37 37 38 39 41 42 42 41 42 44 45
27 25 25 24 26 26 26 26 26 26 25 24 23 23 24 25 27 28 29 32 33 34 34 32 30 28 28 28 29 30 30 29 29 29 29 28 27 27 27 27 27 27 26 25 24 25 27 30 32 33 36 37 37 38 38 39 38 36 32 29 28 28 26 26 28 30 30 28 26 25 26 27 30 33 35 35 35 36 38 39 39 40 42 45 46
25 24 24 23 24 25 24 24 24 24 23 22 22 22 23 24 25 27 28 30 31 32 32 32 32 31 29 28 29 29 29 29 30 30 28 25 23 22 22 24 25 26 26 26 26 27 28 29 30 32 33 33 33 35 37 36 34 32 29 24 22 23 23 24 26 28 29 28 27 25 25 25 26 28 30 32 33 35 37 38 38 40 43 45 45
24 23 23 23 24 24 23 22 22 21 21 20 21 22 22 23 24 25 26 28 29 30 30 30 30 31 31 30 29 30 30 31 31 30 29 26 23 21 21 22 23 25 26 26 26 27 28 28 29 31 32 31 32 34 35 33 30 29 29 27 24 24 24 26 27 28 27 26 27 27 26 25 24 24 26 27 30 32 34 36 38 41 42 43 43
22 21 21 22 23 22 21 21 20 19 19 19 19 21 22 23 23 24 25 26 27 27 28 28 28 28 29 29 29 31 32 32 31 31 29 28 26 23 22 22 23 24 25 25 25 26 27 28 29 31 31 31 31 31 31 30 28 27 27 28 28 27 27 28 27 26 24 24 26 26 25 23 23 24 26 28 29 31 33 36 40 42 43 43 43
20 20 20 20 21 20 20 19 19 18 17 17 18 20 21 22 22 22 23 24 25 25 26 26 26 26 27 27 28 29 30 30 30 29 28 27 26 24 23 23 23 23 24 25 25 25 26 26 28 29 30 29 29 29 28 26 24 23 23 23 25 26 26 26 25 24 23 23 25 26 25 23 23 23 25 27 29 32 36 38 40 42 42 42 42
19 19 19 18 19 19 18 17 17 16 16 17 18 19 20 20 20 20 20 21 22 23 23 24 24 24 25 25 24 24 26 27 27 27 27 26 26 25 24 23 22 22 23 24 25 26 26 26 26 26 27 27 27 26 25 24 22 21 20 19 19 20 21 23 25 26 26 25 25 24 24 23 23 24 25 27 30 33 36 37 38 39 38 38 38
19 18 17 17 17 17 17 16 16 15 15 16 17 18 19 19 18 18 18 19 20 20 21 21 21 22 23 24 24 24 25 27 28 28 28 28 26 25 24 23 21 21 21 22 23 25 26 26 26 25 25 25 25 24 24 23 21 21 20 18 17 17 18 19 21 23 23 23 22 22 21 21 22 24 25 27 29 32 33 34 35 35 35 35 35
18 17 16 16 16 16 16 16 15 15 15 15 16 16 17 16 16 16 16 16 17 17 18 19 20 21 22 23 24 25 26 28 29 30 31 31 29 28 26 24 22 21 20 20 21 22 24 25 25 24 23 23 22 22 22 21 20 20 21 19 18 18 18 18 19 19 19 18 18 18 18 19 20 22 23 25 27 29 30 31 32 32 32 33 33
17 16 16 15 15 14 15 15 15 15 15 14 14 15 15 14 14 14 14 14 14 15 16 17 19 20 21 23 24 25 27 28 29 30 31 32 32 31 29 27 24 22 21 21 21 21 22 23 24 24 23 22 21 20 19 19 19 19 20 19 18 17 18 18 18 18 17 16 16 16 16 17 18 19 20 22 24 25 27 28 29 29 30 31 31
16 16 15 15 14 13 13 14 14 14 14 13 12 12 12 12 12 12 12 11 12 12 14 16 18 19 21 22 23 24 26 26 27 28 29 30 31 32 32 31 28 26 24 22 22 22 22 22 23 23 23 22 22 21 20 19 18 18 17 17 17 16 16 16 16 16 15 14 14 14 14 14 15 16 17 19 21 22 23 25 26 27 28 29 30
16 15 15 14 13 12 12 12 12 12 12 12 11 10 10 10 10 10 10 10 10 11 13 15 17 18 20 21 22 23 24 25 26 27 27 28 29 29 30 30 30 29 27 25 24 23 22 22 22 24 24 23 22 21 21 20 19 18 17 16 16 15 13 12 11 11 11 11 11 11 11 11 12 13 15 16 17 19 20 21 23 24 25 27 28
15 15 14 14 12 12 11 11 11 11 10 10 10 9 9 8 8 8 8 9 9 11 12 14 15 17 18 19 21 22 23 24 25 26 26 27 28 28 28 28 29 29 29 28 28 27 26 25 24 24 25 25 24 22 22 21 20 19 18 18 17 16 14 13 12 11 11 10 9 8 8 8 9 10 11 13 14 16 17 19 21 22 23 24 25
14 14 14 13 11 11 11 10 10 10 9 9 8 8 8 8 8 8 8 8 9 10 11 12 14 15 16 17 19 20 21 22 23 24 25 26 26 27 27 28 28 28 28 28 29 29 29 29 28 28 28 28 28 27 25 24 22 21 21 20 20 19 17 16 15 14 13 11 9 8 6 6 6 7 8 10 12 13 15 17 19 20 21 22 23
14 14 13 12 11 11 11 10 10 9 9 8 8 7 8 8 8 8 8 8 9 10 11 12 13 14 15 16 16 17 18 19 21 22 23 24 25 25 26 26 27 27 28 28 28 28 28 28 29 30 30 31 31 30 30 29 27 26 25 23 22 20 19 18 17 16 14 12 10 8 6 4 3 4 6 8 9 11 13 15 16 18 19 20 22
14 14 13 11 11 11 10 10 10 10 9 8 8 7 7 8 8 8 8 9 9 10 11 12 13 14 15 15 16 16 17 18 19 20 21 22 22 23 24 25 25 26 27 28 28 28 28 28 28 29 29 30 31 31 31 31 30 29 28 26 25 23 22 20 19 17 15 13 11 8 6 4 1 2 4 6 7 9 11 13 15 17 18 20 21
14 13 12 11 11 11 10 10 10 10 10 9 9 8 8 8 9 9 10 10 10 10 11 12 13 14 14 15 15 16 16 17 17 18 19 19 20 20 21 22 23 24 25 26 26 27 27 28 28 28 28 28 29 30 30 30 29 29 28 28 27 26 25 24 22 20 18 15 13 10 8 5 4 4 5 6 7 9 11 13 15 16 18 19 21
Wind_Direction
346 349 354 360 359 1 360 357 355 350 346 343 339 339 337 336 337 337 339 339 338 338 337 337 335 334 332 331 330 329 328 327 326 325 323 323 322 321 320 318 316 315 314 312 312 311 310 309 308 308 309 306 302 296 288 279 272 266 261 259 258 258 260 262 264 266 266 265 265 266 265 263 261 260 260 260 258 257 256 256 255 252 249 247 247
320 327 332 335 335 336 338 339 338 335 334 333 332 332 332 332 332 332 334 335 335 335 335 333 333 331 330 329 328 326 325 323 322 321 320 319 318 317 316 314 313 311 310 309 308 307 305 304 303 304 305 304 302 302 300 294 286 277 270 264 261 259 259 261 263 266 267 265 264 264 263 262 261 260 260 260 260 259 257 256 255 253 251 248 246
294 302 309 314 319 324 327 328 329 328 328 329 329 329 329 330 330 329 330 331 331 331 330 329 328 327 327 326 325 324 322 321 320 318 317 316 314 313 312 311 309 307 305 304 304 303 302 300 299 299 300 299 299 299 299 298 296 290 283 276 269 265 262 260 262 264 266 267 265 263 262 261 261 260 261 262 262 261 258 256 254 253 252 248 245
281 292 303 313 318 322 323 324 324 324 324 325 325 326 327 327 328 328 328 327 327 327 326 325 325 324 324 323 322 321 320 319 318 316 315 313 311 310 309 307 305 304 302 301 299 298 297 296 296 296 295 294 293 294 295 296 296 294 292 288 282 276 270 265 262 263 266 268 266 263 262 260 260 260 261 261 261 260 258 256 254 252 250 248 245
282 294 305 312 314 315 316 317 317 318 318 319 320 321 322 323 324 324 324 324 324 324 323 323 322 322 321 321 320 319 318 317 316 314 313 310 308 306 305 303 301 300 298 297 296 295 294 292 291 292 292 291 289 289 290 291 292 292 292 291 290 287 282 274 267 264 264 265 265 265 264 261 259 258 258 259 259 258 257 255 253 251 249 247 244
289 297 302 305 306 307 307 308 309 310 311 314 316 317 318 319 319 320 320 320 321 321 321 321 321 321 320 320 319 318 316 315 314 312 310 308 305 303 301 299 297 296 294 293 292 292 291 290 289 288 289 288 287 287 287 288 288 288 288 289 290 290 287 282 275 270 266 264 264 265 265 262 260 257 255 256 257 257 256 255 252 249 246 245 243
290 295 298 300 302 303 303 303 304 305 308 311 314 315 315 315 316 317 317 317 318 318 318 318 319 319 318 318 317 316 315 314 313 311 309 307 306 304 301 298 296 294 292 290 289 288 288 287 287 287 287 286 286 286 286 285 285 284 284 285 287 287 286 284 281 276 271 267 265 264 264 263 262 259 256 256 256 256 256 255 252 248 245 244 243
293 301 307 311 312 311 309 308 308 309 310 312 313 313 313 314 315 315 316 316 316 316 317 317 317 316 316 315 314 314 313 313 312 311 309 309 308 306 304 301 298 296 292 290 287 286 285 284 284 285 285 285 285 284 284 284 284 283 281 282 283 283 284 283 282 279 276 272 269 266 264 263 263 261 257 254 252 251 250 249 249 248 246 245 244
300 309 316 319 318 315 313 312 312 312 313 313 312 313 313 314 314 314 314 315 315 316 317 316 316 315 314 313 312 312 311 311 310 309 309 308 307 306 304 302 300 298 295 292 289 286 284 282 281 281 282 283 283 283 282 282 282 281 280 280 281 280 280 280 280 279 276 274 272 269 264 262 261 260 257 252 250 249 249 248 249 248 247 245 245
299 306 313 316 315 313 311 310 310 311 311 311 311 311 312 312 312 312 313 313 314 315 315 315 315 314 313 312 312 311 310 309 308 306 305 304 304 303 301 300 298 297 295 293 290 288 285 283 280 279 279 279 281 281 280 280 279 279 279 279 279 278 278 277 276 275 274 272 271 269 265 261 260 258 256 255 253 252 251 250 250 249 246 244 244
293 299 306 310 310 309 308 307 308 309 308 308 309 310 310 310 310 311 311 312 313 314 314 314 314 313 312 311 311 309 308 308 307 305 303 302 300 299 297 295 294 293 292 291 290 288 287 284 282 280 278 277 276 277 279 279 278 277 276 276 276 275 274 273 272 272 271 270 270 268 264 263 263 259 256 257 255 253 252 251 250 249 246 244 244
287 293 300 304 306 306 305 305 306 306 305 306 307 308 308 309 309 309 310 311 312 312 312 312 312 311 310 309 309 308 308 307 306 305 303 302 299 297 295 292 290 288 287 287 286 286 286 285 283 281 279 277 276 275 276 277 278 277 275 274 273 272 271 270 269 268 267 267 267 267 264 264 265 261 256 256 255 254 253 251 249 248 246 245 246
281 289 296 300 302 302 302 302 303 302 302 303 304 305 306 306 307 308 309 310 310 311 311 311 311 310 309 309 308 308 308 308 306 305 303 301 299 297 294 291 289 287 284 282 282 282 282 283 282 281 280 278 277 275 274 275 276 277 277 275 272 270 269 268 266 265 264 264 264 264 264 264 264 262 259 257 255 254 252 250 248 247 245 245 247
277 287 293 296 297 298 299 299 300 299 300 302 303 304 305 305 306 307 308 309 310 310 311 310 310 310 309 309 308 308 308 307 306 305 303 301 300 298 294 291 288 286 283 282 281 280 280 280 281 281 280 279 277 276 275 274 275 276 277 276 273 270 268 267 266 264 262 260 260 262 264 263 263 264 263 259 256 255 253 251 249 248 247 249 250
279 287 290 293 294 295 297 297 297 298 300 302 304 305 305 305 306 307 308 309 309 309 310 310 310 310 309 308 308 309 309 308 307 305 304 303 302 298 294 290 287 285 284 283 282 281 281 281 281 281 280 280 279 278 277 276 276 275 275 275 273 272 268 266 265 264 263 261 260 261 263 263 264 265 264 260 257 256 256 255 254 253 253 254 252
283 288 290 292 293 294 295 295 296 299 302 304 305 306 307 307 308 308 309 309 309 308 309 309 309 309 310 310 310 310 309 309 308 307 306 305 303 298 294 291 289 288 287 286 285 284 283 283 283 282 282 281 281 280 279 278 276 274 272 271 272 272 270 267 264 263 262 262 262 262 263 263 264 264 264 261 258 256 256 256 255 252 250 249 247
287 290 291 292 293 294 295 296 299 302 305 306 307 307 308 308 309 309 309 309 308 308 309 310 310 310 311 312 312 311 310 310 310 308 306 304 303 300 297 295 292 291 291 291 290 289 287 286 286 286 285 284 284 284 282 279 275 272 270 269 268 268 268 267 266 263 262 262 262 263 262 262 262 262 261 260 257 255 252 250 248 245 241 241 242
289 291 292 292 293 294 296 299 303 305 307 308 308 308 308 309 309 309 309 308 308 309 311 311 312 312 313 314 314 312 310 310 310 307 304 304 304 301 299 296 294 294 294 294 293 292 292 292 291 290 288 287 287 287 286 281 276 273 270 269 268 267 265 265 266 265 263 262 262 261 261 261 260 260 259 257 255 252 248 247 247 243 239 239 241
293 294 294 294 295 297 299 303 306 307 308 308 308 308 308 309 309 309 308 308 309 311 312 313 313 314 315 315 315 313 311 310 309 307 306 307 307 302 298 295 293 291 292 292 292 292 292 292 292 291 290 290 290 290 288 284 280 276 272 269 268 266 264 264 267 268 266 263 261 260 260 260 259 259 258 256 254 251 247 246 246 242 239 240 241
296 296 296 297 297 300 303 306 308 308 308 308 308 308 309 309 309 309 309 309 311 312 314 314 315 315 316 316 315 314 312 309 309 309 310 311 309 302 295 293 292 292 293 294 294 294 294 293 293 292 291 291 291 290 288 285 282 280 277 273 269 267 265 264 265 267 267 265 262 259 259 259 259 259 258 258 255 252 248 246 244 242 240 240 240
296 296 297 297 299 302 306 307 308 309 309 309 308 309 309 310 309 309 309 311 312 314 314 315 316 316 316 316 315 314 312 310 312 315 314 313 313 305 297 294 295 296 296 296 297 297 295 293 292 293 292 290 290 289 287 284 281 278 275 273 273 273 272 268 265 263 263 264 264 261 258 257 258 257 257 257 256 254 250 247 245 242 240 239 238
295 295 296 297 300 304 307 308 309 309 310 310 309 309 310 309 309 309 311 313 314 315 316 317 317 316 316 315 314 313 313 314 317 320 318 317 317 309 299 295 295 296 296 295 295 295 294 294 295 297 297 294 289 287 286 284 282 277 274 272 273 274 273 272 270 266 262 261 262 261 257 254 254 254 254 254 255 254 253 250 247 244 241 240 239
296 296 296 299 303 306 308 309 310 310 310 311 310 310 310 309 309 311 313 315 315 316 317 317 317 316 315 315 314 314 316 320 324 323 321 322 320 312 301 295 293 292 293 293 293 295 296 297 299 302 303 298 291 289 289 287 284 281 278 276 274 273 272 271 271 268 264 260 259 258 256 252 250 250 250 251 252 253 253 252 251 248 244 242 240
296 296 297 300 304 307 309 310 310 311 312 312 310 310 310 310 311 313 316 317 317 317 317 318 318 317 315 314 314 317 322 326 326 324 324 323 320 313 305 300 297 296 294 293 294 297 299 301 305 307 307 302 297 294 290 286 283 281 280 278 276 274 273 272 271 271 267 260 256 255 253 251 248 247 247 248 249 251 252 253 253 251 248 245 242
295 296 299 303 307 308 309 310 311 311 312 312 311 310 311 311 313 316 318 319 318 317 317 319 319 317 316 317 320 324 327 327 325 324 324 321 318 315 312 309 308 304 297 294 297 300 302 304 305 303 300 297 296 294 291 288 286 282 280 280 277 273 271 270 270 272 271 263 256 253 252 250 248 247 247 247 248 249 250 251 252 251 248 247 245
296 298 302 305 308 309 310 310 311 311 312 311 311 311 312 313 315 317 320 320 319 318 319 320 320 320 321 322 323 324 325 323 321 320 319 317 317 319 317 315 313 307 300 297 299 301 301 301 300 299 298 298 298 297 295 293 290 285 282 280 277 274 272 270 269 271 273 268 260 254 252 250 248 247 246 245 245 245 246 247 247 247 245 244 244
297 300 304 307 309 310 310 311 311 312 312 311 310 311 312 314 316 318 321 321 320 320 321 322 324 325 324 323 321 319 319 318 316 316 316 317 318 318 316 314 312 309 305 303 303 303 303 302 301 300 300 300 300 298 295 292 289 286 285 283 280 277 276 274 272 272 273 271 263 256 253 251 248 244 243 242 242 242 244 244 243 243 242 242 241
299 302 306 308 309 310 311 311 312 312 312 311 310 311 313 315 316 318 323 324 322 324 325 325 326 325 322 319 316 314 314 314 314 314 316 315 314 313 312 311 309 307 305 306 306 305 305 304 303 301 300 300 300 298 295 291 289 287 286 285 283 280 278 277 276 275 276 273 263 255 252 251 247 241 239 239 240 241 241 241 241 241 241 241 239
301 305 307 308 309 310 311 311 312 312 311 310 310 310 313 317 318 319 323 327 327 326 325 323 322 319 315 313 312 310 310 311 312 312 312 311 309 308 307 306 304 303 303 303 303 304 304 303 304 303 302 301 298 296 294 292 290 288 286 284 282 280 278 278 277 279 282 276 260 250 249 249 246 241 238 238 239 240 240 239 239 239 239 239 239
304 306 307 308 310 311 311 311 312 312 311 310 310 311 313 317 321 322 323 326 328 327 324 322 321 317 310 307 308 307 305 307 309 310 310 310 308 305 303 303 302 301 300 299 299 300 301 302 301 300 299 297 296 296 296 294 291 289 286 285 283 280 278 277 277 280 287 278 256 247 247 248 244 239 235 234 236 238 238 238 239 238 238 238 238
306 307 308 309 310 311 311 311 311 311 310 310 311 312 313 315 318 321 323 326 328 328 325 325 327 324 316 311 310 309 309 311 312 311 311 310 307 304 303 304 304 301 298 298 299 300 300 300 300 299 297 296 296 298 299 297 293 290 286 284 283 280 278 278 277 281 289 284 260 247 246 246 245 243 238 235 235 235 235 236 235 235 236 238 238
306 307 309 310 310 310 310 310 310 310 310 310 311 313 315 316 317 319 322 325 329 330 330 331 332 332 328 322 319 316 316 317 315 312 311 311 310 309 308 305 301 299 297 296 297 297 297 297 298 298 297 298 300 302 302 299 296 293 288 283 281 280 277 277 278 280 287 287 272 257 250 246 244 244 242 240 237 234 232 231 231 232 235 237 237
305 307 308 309 308 308 308 308 308 308 309 310 312 315 318 319 321 323 325 327 328 330 333 336 337 335 333 331 328 323 321 318 316 315 316 317 317 317 313 305 299 298 297 297 296 296 296 298 300 301 303 305 305 303 303 301 298 295 290 284 281 279 276 275 277 280 283 282 276 269 262 253 247 244 241 240 237 230 226 227 229 231 234 235 235
304 306 307 307 306 306 306 307 307 307 308 310 313 316 319 322 325 328 331 333 334 335 337 341 342 339 335 333 331 327 324 322 321 322 324 323 321 319 315 308 304 301 300 300 302 305 307 308 310 312 312 311 309 306 304 302 300 295 290 284 282 279 276 274 275 278 281 280 275 273 269 262 253 245 240 238 235 230 227 228 230 232 233 234 233
304 305 305 304 303 302 303 304 305 306 308 310 313 317 319 323 327 330 332 334 336 338 341 344 347 344 337 333 331 329 327 326 329 331 330 325 322 319 316 314 314 312 309 309 313 317 317 317 319 320 319 316 314 312 309 306 302 297 292 287 283 279 276 275 275 277 279 279 276 274 272 264 253 244 240 237 233 228 227 228 231 234 236 235 233
303 303 301 300 298 298 300 302 304 305 307 311 315 317 320 324 327 330 332 333 334 336 339 343 345 345 340 337 335 333 331 332 335 335 332 327 325 324 324 325 325 323 320 322 326 326 324 324 326 327 325 323 323 322 319 314 308 303 298 294 287 281 278 277 276 277 278 277 274 272 272 266 254 245 241 241 238 234 232 231 234 237 239 236 232
301 300 299 296 295 295 297 300 302 305 308 312 315 317 320 324 327 329 332 334 336 337 339 342 343 343 344 344 341 336 336 339 339 336 333 331 331 332 334 336 335 331 330 332 334 331 328 330 333 332 330 332 336 337 333 326 317 308 304 300 293 287 284 281 280 281 281 278 272 271 272 270 262 251 244 242 240 239 237 237 239 241 240 235 228
298 297 296 293 292 294 297 300 302 304 308 312 314 317 321 325 327 329 332 335 338 339 341 344 346 346 345 344 342 341 342 344 341 337 336 337 338 340 343 342 340 337 335 335 336 334 332 335 339 337 335 339 345 346 343 340 332 320 310 303 296 291 288 285 285 286 284 276 271 270 270 267 264 260 254 248 244 242 239 239 239 238 233 227 222
295 293 291 290 291 295 298 301 303 305 308 312 315 319 322 325 327 329 333 336 340 343 344 348 351 351 348 347 347 346 345 343 341 338 337 338 341 345 348 345 342 340 338 337 338 338 338 340 343 340 338 343 348 346 343 344 343 335 322 312 304 300 297 293 288 285 281 274 270 270 269 264 261 260 258 254 251 249 245 242 239 234 229 224 221
290 288 286 286 290 294 298 301 303 306 310 314 317 320 323 325 327 331 335 337 342 346 349 352 355 355 354 355 354 348 342 341 342 341 342 343 344 347 349 349 347 345 343 341 341 341 341 343 344 341 339 341 344 344 342 342 341 339 333 323 314 307 305 300 292 285 280 275 272 272 273 271 268 265 261 257 255 252 247 243 238 233 229 225 221
286 285 284 285 289 294 297 299 302 306 311 316 319 321 323 324 328 333 336 339 344 349 352 357 1 2 2 5 4 357 350 350 353 353 354 355 353 352 354 354 352 351 350 348 346 344 343 344 343 341 339 340 342 343 344 344 342 339 337 332 325 318 313 308 300 291 282 277 275 275 275 275 272 266 262 258 253 247 242 237 233 228 224 220 216
284 283 284 285 289 292 295 297 301 306 311 316 318 320 322 325 329 333 336 342 349 354 356 1 8 11 13 15 16 13 10 10 10 9 9 7 4 0 359 357 356 357 358 356 353 350 348 345 344 343 342 343 344 345 346 346 346 346 344 340 339 336 332 326 316 304 292 284 281 280 278 275 270 264 258 253 247 241 236 231 227 223 219 215 212
281 282 283 284 287 291 294 298 302 307 312 316 318 320 322 326 329 333 338 346 353 358 2 7 13 17 21 22 23 22 22 22 22 21 19 16 13 9 5 1 0 3 5 5 4 0 355 351 349 348 347 346 346 348 350 351 352 353 352 351 351 350 347 341 334 322 310 300 294 288 281 274 268 261 254 249 243 238 233 228 223 219 215 212 210
278 279 281 283 286 290 295 298 302 307 311 315 318 320 322 326 329 333 340 349 356 3 9 13 15 18 21 23 24 24 25 25 24 24 22 21 19 17 14 10 7 7 9 12 13 10 6 2 358 357 356 355 353 353 355 358 360 1 1 0 0 360 357 353 346 337 327 315 306 297 288 278 269 261 253 247 240 234 229 224 220 216 212 209 206
275 277 280 281 284 288 294 297 301 306 310 313 317 319 321 324 329 335 343 351 357 4 11 13 14 15 16 18 20 21 22 22 22 22 22 21 21 21 20 19 17 14 14 15 16 16 16 14 11 8 7 5 3 2 3 5 7 8 8 7 8 10 11 7 1 355 347 337 325 313 298 283 270 258 249 241 236 231 226 221 217 213 210 207 205
272 276 278 279 281 286 292 296 301 305 308 311 316 319 322 325 331 338 345 351 355 1 6 9 11 11 12 14 17 18 19 20 20 20 20 20 20 21 22 22 22 22 22 21 21 20 20 20 20 20 18 15 13 12 12 13 15 16 16 17 17 17 18 18 15 9 4 355 344 328 310 291 272 256 245 237 230 225 220 215 212 210 207 205 203
270 273 275 276 280 285 291 295 301 305 307 310 316 321 325 330 335 339 342 345 351 357 1 5 7 8 11 13 15 17 19 20 20 21 21 21 21 21 21 22 23 24 25 27 28 28 28 27 28 30 29 27 25 22 20 19 20 21 23 24 24 23 23 24 25 23 18 10 357 340 318 295 271 251 239 231 223 217 212 208 205 203 202 201 199
267 269 271 273 278 284 289 294 299 303 305 308 314 321 326 329 334 336 337 339 344 350 355 359 3 5 9 13 15 17 18 20 21 22 22 22 23 23 22 22 22 22 24 26 28 30 32 33 33 34 35 35 35 33 31 28 27 27 28 28 28 28 30 31 32 32 28 20 9 356 335 307 275 246 229 221 215 210 204 200 197 196 195 194 192
264 264 266 269 275 280 285 290 296 299 302 304 309 315 321 325 328 329 331 334 339 343 347 352 356 359 3 8 12 14 16 18 21 22 23 23 23 23 23 24 24 24 24 24 25 26 28 32 33 34 34 35 37 38 37 36 35 33 33 32 32 31 32 34 36 35 31 26 21 14 2 341 294 235 215 207 204 201 198 194 190 188 186 184 183
261 260 261 265 270 276 281 286 292 296 298 301 305 309 313 318 320 320 321 324 329 335 341 346 349 352 355 359 3 7 10 12 15 18 20 21 21 22 22 23 24 24 25 25 25 24 24 26 29 32 33 34 35 36 37 38 38 37 37 37 37 38 37 37 36 35 32 29 28 26 21 17 25 171 178 183 186 186 184 181 179 177 177 176 176
258 258 259 262 266 271 277 281 286 290 293 298 302 305 307 310 311 311 313 317 321 327 333 338 342 345 348 350 353 357 0 3 6 9 12 15 16 17 18 20 21 23 24 24 24 25 24 24 26 28 31 33 34 34 35 36 36 38 40 41 42 43 43 41 40 38 36 35 34 35 38 47 74 113 135 149 162 167 168 168 169 169 169 171 173
Height
1524 1523 1523 1523 1524 1524 1524 1524 1524 1523 1522 1522 1521 1519 1518 1517 1517 1516 1515 1514 1513 1512 1511 1510 1509 1509 1508 1507 1506 1505 1503 1502 1501 1499 1498 1497 1496 1494 1493 1492 1490 1489 1488 1486 1486 1484 1482 1480 1478 1477 1476 1474 1473 1473 1472 1471 1470 1468 1468 1467 1466 1467 1468 1468 1462 1455 1454 1459 1460 1461 1463 1465 1464 1464 1465 1467 1469 1471 1471 1472 1472 1472 1472 1474 1475
1524 1523 1523 1523 1523 1523 1523 1523 1522 1522 1521 1520 1519 1518 1517 1516 1515 1514 1513 1512 1511 1510 1509 1508 1507 1507 1506 1505 1504 1503 1502 1501 1500 1498 1496 1494 1492 1491 1490 1488 1486 1485 1484 1482 1482 1481 1479 1477 1475 1474 1473 1471 1469 1469 1468 1467 1466 1464 1463 1462 1460 1461 1462 1462 1459 1453 1449 1451 1455 1455 1457 1458 1458 1458 1460 1461 1463 1466 1466 1466 1466 1467 1468 1468 1469
1523 1523 1523 1523 1522 1522 1522 1522 1521 1520 1519 1518 1517 1516 1515 1514 1513 1512 1511 1511 1509 1508 1507 1506 1505 1504 1503 1502 1501 1500 1499 1497 1496 1495 1493 1491 1489 1487 1486 1484 1482 1481 1479 1478 1477 1476 1475 1473 1471 1471 1470 1467 1465 1465 1464 1463 1462 1460 1458 1458 1456 1455 1456 1457 1455 1451 1446 1446 1448 1449 1451 1452 1452 1452 1454 1455 1458 1460 1460 1460 1461 1462 1462 1462 1463
1522 1522 1522 1522 1521 1521 1521 1520 1519 1518 1517 1516 1515 1514 1513 1512 1511 1510 1509 1508 1507 1506 1505 1504 1502 1501 1499 1498 1497 1496 1494 1492 1491 1490 1488 1487 1484 1483 1481 1480 1478 1476 1474 1473 1472 1471 1469 1467 1466 1465 1465 1463 1460 1460 1460 1459 1458 1457 1454 1453 1452 1450 1451 1451 1450 1447 1444 1441 1441 1443 1445 1446 1446 1447 1449 1450 1451 1452 1453 1454 1455 1456 1456 1456 1457
1521 1521 1521 1521 1521 1520 1519 1519 1518 1517 1516 1514 1513 1512 1511 1510 1508 1507 1506 1505 1504 1503 1502 1500 1499 1497 1496 1494 1492 1491 1489 1488 1486 1484 1483 1481 1479 1477 1476 1474 1473 1471 1469 1468 1466 1465 1463 1461 1460 1459 1458 1456 1455 1454 1455 1454 1453 1452 1450 1449 1448 1446 1445 1445 1444 1443 1441 1436 1434 1436 1439 1440 1440 1442 1443 1444 1444 1445 1446 1447 1448 1449 1450 1450 1451
1520 1520 1520 1520 1520 1519 1518 1517 1516 1515 1514 1513 1512 1510 1509 1508 1506 1505 1504 1502 1501 1500 1498 1497 1495 1493 1491 1489 1487 1486 1484 1482 1480 1478 1477 1475 1473 1472 1470 1468 1466 1465 1463 1462 1460 1459 1457 1455 1453 1453 1451 1450 1448 1448 1448 1448 1448 1447 1446 1444 1443 1442 1440 1439 1439 1438 1436 1432 1430 1431 1432 1432 1434 1436 1437 1438 1438 1439 1439 1440 1441 1442 1442 1443 1444
1519 1519 1519 1519 1518 1517 1516 1515 1514 1513 1512 1510 1509 1508 1507 1506 1504 1503 1502 1500 1499 1497 1495 1494 1492 1490 1487 1485 1483 1481 1479 1477 1475 1472 1470 1468 1466 1464 1463 1461 1459 1458 1456 1455 1454 1452 1450 1449 1447 1446 1445 1443 1442 1442 1442 1442 1442 1441 1440 1440 1439 1438 1436 1434 1433 1432 1430 1428 1426 1425 1425 1426 1428 1429 1431 1433 1434 1432 1432 1432 1432 1433 1435 1437 1439
1518 1518 1517 1516 1516 1515 1514 1513 1511 1510 1509 1508 1507 1505 1504 1503 1501 1500 1498 1497 1495 1493 1491 1489 1488 1486 1484 1482 1479 1477 1474 1472 1469 1466 1463 1461 1459 1457 1455 1453 1451 1450 1449 1447 1446 1445 1443 1442 1440 1438 1438 1437 1436 1436 1436 1436 1435 1434 1434 1434 1434 1433 1431 1429 1428 1427 1425 1423 1420 1420 1420 1420 1421 1422 1425 1427 1426 1423 1422 1423 1424 1426 1429 1432 1434
1515 1515 1514 1513 1513 1512 1511 1510 1508 1507 1506 1505 1504 1502 1501 1499 1498 1496 1494 1492 1491 1489 1486 1484 1482 1480 1479 1476 1475 1472 1470 1468 1465 1462 1458 1455 1453 1450 1448 1446 1444 1442 1440 1438 1438 1437 1436 1434 1433 1432 1431 1430 1429 1429 1429 1429 1428 1426 1426 1427 1427 1426 1425 1424 1423 1422 1420 1418 1415 1414 1414 1413 1413 1415 1417 1417 1416 1416 1418 1419 1419 1420 1423 1426 1428
1513 1513 1512 1511 1511 1509 1508 1507 1506 1505 1503 1502 1501 1499 1497 1496 1494 1492 1490 1488 1486 1484 1482 1479 1477 1474 1472 1470 1468 1466 1464 1462 1460 1458 1455 1452 1448 1445 1442 1439 1437 1434 1431 1429 1428 1427 1427 1426 1425 1424 1423 1422 1421 1420 1420 1420 1420 1419 1418 1419 1419 1419 1418 1417 1417 1416 1415 1413 1410 1410 1409 1407 1406 1408 1409 1410 1412 1415 1416 1416 1415 1416 1418 1419 1420
1511 1511 1510 1509 1508 1507 1506 1504 1503 1502 1500 1499 1497 1495 1494 1492 1490 1488 1486 1484 1482 1479 1477 1474 1472 1469 1466 1463 1461 1459 1457 1456 1454 1451 1449 1447 1444 1440 1436 1433 1430 1427 1424 1421 1419 1417 1416 1416 1416 1415 1415 1414 1413 1412 1411 1411 1411 1411 1410 1411 1411 1412 1412 1411 1410 1410 1409 1407 1405 1405 1404 1401 1400 1402 1403 1405 1408 1409 1410 1410 1411 1412 1411 1410 1410
1508 1508 1507 1506 1505 1504 1503 1501 1500 1498 1497 1495 1493 1491 1490 1487 1485 1483 1481 1479 1476 1474 1472 1469 1466 1464 1461 1458 1455 1453 1451 1449 1446 1444 1441 1439 1437 1434 1430 1427 1423 1421 1418 1415 1411 1409 1406 1405 1405 1405 1405 1405 1404 1404 1402 1402 1401 1402 1402 1402 1403 1404 1404 1404 1403 1403 1403 1402 1400 1399 1398 1396 1395 1397 1399 1399 1401 1403 1404 1405 1405 1404 1404 1403 1402
1506 1505 1504 1503 1502 1500 1499 1498 1497 1495 1494 1492 1490 1488 1486 1483 1481 1479 1476 1474 1471 1468 1466 1463 1461 1458 1455 1452 1449 1446 1444 1441 1438 1436 1433 1431 1429 1426 1422 1419 1415 1412 1409 1407 1404 1401 1399 1396 1394 1394 1394 1395 1395 1395 1394 1394 1393 1393 1394 1394 1394 1394 1395 1396 1396 1396 1396 1396 1394 1391 1391 1392 1390 1391 1394 1395 1396 1397 1397 1398 1398 1398 1398 1397 1396
1503 1502 1501 1500 1498 1497 1496 1495 1493 1491 1490 1488 1486 1484 1482 1479 1477 1474 1471 1469 1466 1463 1460 1457 1455 1452 1449 1445 1442 1439 1437 1434 1431 1428 1425 1423 1421 1418 1414 1410 1406 1402 1399 1397 1396 1393 1392 1390 1386 1384 1384 1385 1386 1387 1387 1387 1386 1386 1386 1385 1385 1385 1386 1386 1387 1388 1389 1389 1387 1384 1384 1387 1386 1386 1389 1391 1390 1390 1390 1390 1392 1393 1393 1392 1394
1500 1499 1497 1496 1495 1494 1492 1491 1489 1487 1486 1483 1481 1479 1476 1474 1472 1469 1466 1463 1460 1457 1455 1451 1449 1446 1443 1439 1435 1432 1430 1427 1424 1421 1418 1415 1413 1410 1406 1401 1397 1393 1390 1389 1388 1386 1384 1383 1380 1378 1376 1376 1377 1379 1379 1380 1379 1379 1378 1377 1376 1376 1376 1377 1379 1380 1380 1381 1381 1378 1378 1380 1381 1382 1384 1385 1384 1384 1385 1386 1388 1389 1390 1391 1391
1496 1495 1494 1493 1491 1490 1488 1487 1485 1483 1481 1478 1476 1473 1471 1468 1466 1463 1460 1457 1455 1452 1449 1446 1443 1439 1436 1433 1428 1425 1422 1419 1416 1413 1411 1408 1405 1402 1398 1394 1390 1385 1382 1380 1379 1378 1377 1375 1373 1371 1369 1368 1370 1371 1373 1374 1373 1371 1370 1369 1368 1367 1367 1367 1369 1371 1372 1373 1373 1372 1371 1373 1375 1376 1378 1379 1379 1379 1381 1382 1383 1384 1385 1384 1382
1492 1491 1490 1489 1487 1486 1484 1482 1480 1478 1475 1473 1470 1468 1465 1462 1460 1457 1454 1451 1449 1446 1443 1440 1436 1432 1429 1426 1421 1417 1414 1412 1410 1407 1404 1402 1399 1395 1392 1387 1383 1379 1376 1374 1373 1370 1369 1369 1368 1366 1363 1362 1362 1364 1367 1368 1366 1364 1362 1360 1360 1359 1357 1358 1360 1361 1363 1364 1365 1365 1364 1365 1368 1369 1371 1373 1373 1375 1376 1375 1375 1377 1377 1375 1373
1488 1487 1486 1484 1483 1481 1479 1477 1475 1473 1470 1468 1465 1463 1460 1457 1455 1452 1449 1445 1443 1440 1436 1432 1429 1426 1422 1419 1415 1411 1407 1405 1404 1401 1399 1397 1393 1390 1386 1382 1378 1375 1371 1369 1368 1366 1363 1363 1363 1362 1359 1357 1357 1358 1360 1361 1359 1357 1355 1354 1352 1350 1348 1350 1352 1353 1355 1356 1356 1357 1356 1356 1359 1361 1362 1364 1366 1368 1368 1366 1367 1370 1370 1368 1366
1484 1482 1481 1479 1478 1476 1475 1473 1470 1468 1465 1463 1460 1457 1455 1452 1450 1447 1444 1440 1437 1433 1429 1425 1421 1418 1415 1412 1409 1406 1402 1400 1399 1396 1393 1391 1388 1385 1382 1378 1374 1371 1368 1365 1363 1362 1360 1358 1358 1358 1355 1353 1353 1354 1354 1355 1353 1351 1349 1348 1344 1340 1340 1343 1345 1346 1347 1348 1347 1348 1347 1347 1350 1352 1353 1355 1357 1359 1359 1358 1360 1363 1362 1360 1361
1479 1478 1476 1475 1473 1471 1470 1468 1465 1463 1461 1458 1455 1453 1450 1447 1445 1442 1439 1435 1431 1427 1423 1419 1415 1412 1409 1406 1403 1401 1398 1395 1393 1391 1387 1385 1384 1381 1378 1374 1370 1367 1364 1361 1358 1356 1355 1354 1353 1353 1352 1350 1349 1349 1349 1349 1348 1345 1343 1341 1336 1332 1333 1336 1338 1340 1340 1339 1338 1338 1338 1339 1341 1343 1344 1346 1347 1349 1350 1351 1352 1354 1353 1353 1356
1475 1473 1472 1470 1469 1467 1465 1462 1460 1458 1456 1453 1450 1448 1446 1443 1440 1437 1433 1430 1425 1421 1417 1414 1409 1406 1403 1401 1398 1397 1395 1391 1388 1385 1382 1380 1379 1377 1374 1370 1367 1363 1359 1357 1354 1352 1351 1350 1349 1349 1348 1346 1344 1343 1341 1341 1342 1339 1336 1333 1330 1328 1329 1329 1330 1332 1332 1330 1329 1329 1329 1330 1331 1333 1334 1336 1337 1339 1342 1342 1343 1345 1345 1346 1349
1470 1469 1468 1466 1464 1462 1460 1457 1455 1453 1450 1448 1445 1443 1441 1438 1435 1432 1429 1424 1420 1416 1412 1408 1404 1400 1398 1396 1394 1393 1391 1387 1383 1380 1378 1376 1375 1374 1371 1367 1365 1361 1356 1353 1351 1348 1346 1345 1343 1343 1342 1340 1338 1336 1335 1334 1334 1332 1329 1327 1326 1326 1325 1323 1323 1323 1323 1322 1321 1320 1320 1320 1322 1323 1325 1326 1328 1330 1333 1334 1336 1337 1337 1339 1342
1466 1464 1463 1461 1459 1457 1455 1453 1450 1448 1445 1443 1440 1438 1436 1434 1430 1427 1424 1419 1414 1410 1407 1403 1399 1396 1393 1391 1390 1388 1386 1382 1379 1376 1374 1372 1370 1369 1367 1364 1362 1360 1355 1350 1347 1344 1341 1340 1338 1337 1335 1334 1332 1330 1329 1328 1327 1324 1322 1321 1321 1320 1320 1318 1317 1315 1314 1314 1313 1312 1311 1311 1312 1314 1316 1318 1320 1322 1325 1327 1328 1330 1330 1332 1335
1461 1460 1459 1457 1455 1453 1450 1448 1445 1443 1441 1438 1436 1433 1431 1428 1425 1422 1419 1414 1410 1405 1401 1399 1395 1392 1388 1386 1385 1383 1380 1376 1374 1372 1370 1367 1366 1364 1362 1360 1358 1356 1352 1348 1344 1341 1337 1335 1333 1332 1330 1329 1327 1325 1324 1322 1321 1319 1317 1316 1315 1314 1313 1310 1309 1308 1306 1305 1304 1303 1303 1303 1303 1305 1307 1310 1313 1316 1318 1320 1321 1323 1324 1326 1328
1457 1456 1454 1452 1450 1448 1445 1443 1441 1438 1436 1434 1431 1429 1427 1423 1420 1417 1414 1410 1405 1401 1397 1394 1391 1388 1384 1381 1378 1376 1373 1370 1368 1367 1365 1363 1361 1359 1357 1355 1353 1351 1347 1344 1340 1337 1333 1331 1330 1329 1327 1325 1323 1320 1317 1315 1314 1312 1311 1310 1308 1307 1305 1303 1302 1301 1299 1296 1295 1295 1295 1295 1296 1297 1300 1304 1308 1310 1312 1313 1314 1316 1319 1321 1322
1452 1451 1449 1447 1445 1443 1440 1438 1436 1434 1432 1430 1428 1425 1422 1419 1416 1412 1409 1406 1401 1397 1393 1390 1387 1384 1380 1376 1372 1369 1367 1366 1363 1362 1360 1358 1355 1353 1351 1349 1347 1345 1342 1339 1335 1332 1329 1327 1326 1324 1322 1320 1317 1314 1310 1308 1306 1305 1304 1303 1302 1300 1299 1297 1296 1294 1291 1288 1287 1287 1288 1289 1290 1292 1295 1298 1300 1302 1304 1306 1307 1309 1312 1315 1316
1448 1447 1445 1443 1441 1438 1436 1434 1432 1430 1428 1426 1424 1421 1419 1416 1412 1408 1406 1402 1397 1393 1389 1386 1383 1379 1375 1371 1368 1366 1364 1362 1360 1357 1355 1352 1349 1347 1344 1341 1339 1337 1334 1331 1328 1325 1322 1320 1318 1317 1315 1313 1310 1307 1304 1302 1300 1298 1297 1296 1295 1293 1292 1291 1289 1287 1284 1281 1280 1280 1281 1283 1285 1286 1288 1290 1292 1294 1297 1300 1301 1303 1305 1308 1310
1443 1442 1440 1438 1436 1434 1431 1429 1427 1426 1424 1422 1420 1417 1415 1412 1408 1405 1403 1399 1393 1389 1385 1381 1379 1376 1372 1368 1366 1363 1361 1359 1356 1353 1351 1348 1345 1342 1340 1337 1334 1331 1327 1324 1320 1317 1314 1312 1310 1308 1307 1305 1302 1300 1297 1295 1293 1291 1289 1288 1287 1286 1285 1284 1282 1280 1277 1274 1273 1273 1274 1277 1277 1278 1280 1283 1285 1287 1290 1293 1294 1296 1299 1301 1303
1439 1438 1435 1434 1431 1429 1427 1425 1423 1421 1419 1417 1415 1413 1411 1409 1405 1401 1399 1396 1392 1387 1382 1378 1376 1373 1370 1368 1365 1361 1357 1354 1353 1350 1348 1345 1343 1341 1338 1335 1332 1328 1324 1321 1317 1313 1310 1308 1305 1303 1302 1299 1296 1293 1291 1289 1286 1284 1283 1281 1280 1279 1278 1277 1275 1273 1270 1267 1266 1266 1268 1270 1271 1271 1274 1276 1278 1281 1284 1286 1288 1290 1292 1294 1296
1435 1433 1431 1429 1427 1424 1422 1421 1419 1418 1415 1413 1411 1408 1407 1406 1403 1398 1395 1393 1391 1387 1383 1378 1375 1372 1369 1366 1363 1360 1355 1351 1349 1347 1344 1342 1340 1338 1335 1332 1329 1325 1322 1319 1315 1312 1308 1305 1303 1301 1298 1295 1292 1289 1286 1283 1280 1278 1276 1275 1273 1272 1271 1270 1268 1266 1263 1261 1260 1260 1262 1265 1265 1266 1267 1269 1272 1275 1278 1280 1283 1285 1286 1288 1289
1430 1428 1426 1424 1422 1420 1418 1417 1415 1414 1412 1409 1406 1403 1401 1401 1401 1398 1394 1389 1387 1385 1381 1377 1373 1370 1366 1362 1359 1356 1352 1348 1345 1343 1340 1337 1335 1332 1330 1327 1324 1321 1318 1315 1311 1307 1304 1301 1298 1296 1294 1291 1287 1284 1281 1277 1275 1272 1269 1268 1266 1264 1263 1263 1262 1261 1259 1256 1256 1256 1257 1259 1260 1261 1263 1264 1266 1269 1272 1274 1277 1279 1281 1282 1284
1425 1424 1422 1420 1418 1416 1414 1413 1411 1410 1408 1405 1403 1400 1396 1393 1393 1394 1393 1389 1384 1381 1378 1373 1369 1366 1363 1359 1354 1350 1347 1344 1341 1338 1335 1332 1330 1327 1325 1322 1318 1315 1313 1310 1306 1302 1300 1297 1293 1290 1288 1285 1281 1278 1275 1272 1269 1266 1263 1261 1259 1257 1256 1256 1256 1256 1254 1252 1252 1252 1253 1253 1255 1256 1258 1260 1262 1264 1266 1268 1271 1274 1276 1278 1279
1421 1419 1417 1415 1413 1412 1411 1409 1408 1406 1404 1402 1399 1397 1394 1389 1386 1385 1385 1385 1383 1379 1375 1370 1365 1361 1358 1355 1351 1347 1343 1340 1337 1334 1331 1328 1325 1323 1319 1316 1313 1310 1307 1304 1301 1297 1295 1293 1289 1286 1283 1279 1276 1272 1269 1265 1262 1259 1256 1254 1252 1250 1250 1250 1251 1251 1250 1248 1248 1248 1248 1249 1250 1252 1253 1255 1256 1258 1260 1262 1265 1269 1271 1273 1275
1417 1415 1413 1411 1409 1408 1407 1406 1404 1402 1400 1398 1396 1393 1391 1388 1384 1380 1377 1376 1376 1375 1372 1368 1363 1358 1353 1350 1347 1343 1340 1336 1333 1330 1327 1324 1321 1318 1313 1309 1307 1305 1303 1300 1297 1293 1291 1288 1285 1281 1278 1274 1270 1267 1263 1259 1256 1253 1250 1248 1246 1245 1244 1245 1246 1246 1245 1244 1244 1243 1243 1244 1245 1247 1248 1249 1251 1253 1255 1257 1260 1264 1266 1268 1270
1413 1411 1410 1408 1406 1405 1403 1402 1401 1399 1397 1395 1393 1390 1388 1385 1382 1379 1375 1372 1370 1368 1366 1363 1360 1356 1351 1347 1343 1340 1336 1332 1329 1326 1324 1321 1317 1312 1308 1304 1302 1300 1298 1296 1293 1290 1287 1284 1281 1277 1274 1269 1265 1261 1257 1253 1250 1248 1245 1243 1242 1241 1241 1241 1242 1242 1242 1241 1240 1240 1240 1241 1241 1242 1243 1244 1246 1248 1249 1251 1255 1258 1261 1263 1265
1409 1407 1406 1405 1403 1401 1400 1399 1398 1396 1393 1391 1389 1387 1385 1382 1380 1377 1374 1371 1368 1364 1361 1358 1355 1352 1349 1345 1341 1336 1333 1329 1326 1323 1320 1317 1313 1309 1305 1301 1298 1296 1294 1292 1289 1286 1283 1281 1278 1274 1270 1265 1260 1256 1252 1249 1245 1243 1241 1240 1239 1238 1238 1238 1239 1239 1238 1237 1237 1237 1237 1237 1237 1238 1239 1240 1242 1244 1245 1248 1251 1253 1256 1258 1260
1405 1403 1402 1401 1400 1398 1397 1396 1394 1392 1390 1388 1386 1384 1382 1380 1377 1375 1372 1369 1366 1362 1358 1355 1351 1348 1345 1342 1338 1334 1330 1327 1323 1320 1318 1314 1311 1307 1303 1300 1297 1294 1291 1289 1286 1283 1280 1277 1274 1271 1267 1262 1257 1253 1249 1245 1242 1240 1238 1237 1237 1236 1236 1236 1235 1235 1234 1234 1234 1234 1234 1234 1234 1235 1236 1237 1239 1241 1242 1245 1247 1249 1251 1253 1255
1401 1399 1398 1397 1396 1395 1394 1393 1391 1389 1387 1385 1383 1381 1379 1377 1375 1372 1369 1367 1363 1360 1356 1353 1349 1345 1341 1338 1335 1331 1327 1323 1320 1316 1314 1310 1307 1304 1301 1298 1295 1292 1289 1286 1284 1280 1277 1273 1271 1268 1264 1260 1255 1251 1247 1244 1240 1237 1236 1235 1234 1234 1233 1232 1231 1231 1230 1230 1230 1230 1231 1231 1231 1232 1233 1234 1236 1237 1239 1241 1243 1245 1246 1248 1250
1397 1396 1395 1394 1392 1391 1390 1389 1387 1386 1384 1383 1381 1378 1376 1374 1372 1370 1367 1364 1361 1358 1354 1351 1348 1344 1340 1336 1332 1328 1324 1321 1317 1314 1310 1307 1304 1301 1298 1295 1292 1290 1287 1284 1281 1278 1274 1271 1268 1265 1262 1257 1253 1250 1246 1243 1239 1236 1234 1232 1231 1230 1230 1229 1228 1227 1227 1226 1226 1227 1227 1228 1228 1229 1230 1231 1232 1234 1235 1237 1238 1240 1241 1243 1245
1394 1393 1392 1391 1389 1388 1387 1385 1384 1383 1381 1380 1378 1376 1374 1372 1369 1367 1365 1362 1359 1356 1353 1350 1346 1343 1339 1335 1331 1328 1324 1320 1317 1313 1309 1305 1302 1299 1296 1293 1290 1287 1285 1282 1279 1275 1272 1269 1266 1263 1260 1256 1252 1249 1245 1242 1239 1236 1234 1232 1230 1228 1227 1226 1225 1224 1224 1223 1224 1224 1224 1225 1225 1226 1227 1228 1229 1230 1231 1233 1234 1236 1237 1240 1242
1390 1390 1389 1387 1386 1385 1383 1382 1381 1380 1378 1377 1375 1373 1371 1369 1367 1365 1363 1360 1357 1354 1352 1349 1346 1343 1339 1335 1333 1330 1326 1321 1316 1313 1309 1305 1302 1299 1296 1293 1289 1286 1283 1280 1277 1274 1271 1268 1265 1262 1258 1255 1251 1248 1244 1241 1238 1235 1233 1230 1228 1226 1225 1223 1222 1221 1221 1221 1221 1221 1221 1221 1222 1223 1224 1225 1226 1227 1228 1230 1231 1233 1235 1238 1240
1387 1386 1385 1384 1383 1382 1381 1379 1378 1377 1376 1374 1372 1371 1369 1367 1365 1363 1361 1358 1356 1353 1351 1348 1346 1343 1339 1336 1333 1330 1326 1321 1317 1313 1309 1305 1302 1299 1295 1292 1289 1286 1283 1280 1276 1273 1270 1267 1264 1261 1257 1254 1250 1246 1243 1240 1237 1234 1231 1229 1226 1224 1223 1221 1220 1219 1218 1218 1218 1218 1218 1219 1220 1220 1221 1222 1224 1225 1226 1228 1229 1231 1233 1236 1238
1384 1383 1382 1381 1380 1379 1378 1376 1375 1374 1373 1371 1370 1369 1367 1365 1363 1361 1359 1357 1354 1352 1350 1348 1345 1342 1339 1336 1333 1330 1326 1322 1318 1314 1310 1306 1302 1299 1295 1292 1289 1286 1283 1279 1276 1273 1270 1267 1264 1260 1257 1253 1250 1246 1243 1240 1236 1234 1231 1228 1226 1223 1222 1220 1219 1218 1217 1217 1216 1216 1217 1217 1218 1219 1220 1221 1222 1223 1224 1226 1228 1230 1232 1234 1237
1380 1380 1379 1378 1377 1376 1375 1374 1373 1372 1370 1369 1368 1366 1365 1363 1361 1360 1358 1356 1353 1351 1349 1347 1344 1342 1339 1336 1332 1329 1326 1322 1319 1315 1311 1307 1303 1300 1296 1293 1289 1286 1282 1279 1276 1273 1270 1267 1263 1260 1257 1253 1250 1247 1243 1240 1237 1234 1231 1228 1226 1224 1222 1220 1219 1218 1217 1216 1216 1216 1216 1217 1217 1218 1219 1220 1221 1222 1224 1225 1227 1229 1231 1233 1236
1377 1377 1376 1375 1375 1374 1373 1371 1370 1369 1368 1367 1366 1364 1363 1361 1360 1358 1356 1354 1353 1351 1349 1346 1344 1341 1338 1335 1332 1329 1326 1323 1319 1316 1312 1309 1305 1301 1297 1294 1290 1286 1283 1279 1276 1273 1269 1266 1263 1260 1256 1253 1250 1247 1243 1240 1237 1234 1231 1229 1227 1224 1222 1221 1219 1218 1218 1217 1217 1217 1217 1217 1217 1218 1218 1219 1220 1222 1223 1225 1227 1229 1231 1233 1235
1375 1374 1373 1373 1372 1371 1370 1369 1368 1367 1365 1364 1363 1362 1361 1360 1358 1356 1355 1353 1351 1350 1347 1345 1343 1341 1338 1335 1332 1329 1326 1323 1320 1317 1313 1310 1306 1302 1299 1295 1292 1288 1284 1280 1277 1273 1270 1267 1263 1260 1257 1254 1250 1247 1244 1241 1238 1235 1232 1230 1227 1225 1223 1221 1220 1219 1218 1218 1218 1217 1218 1218 1218 1218 1219 1220 1221 1222 1223 1225 1227 1229 1231 1233 1235
1372 1371 1371 1370 1369 1369 1368 1367 1366 1365 1363 1362 1361 1360 1359 1358 1356 1355 1353 1352 1350 1348 1346 1344 1342 1340 1337 1335 1332 1329 1326 1323 1320 1317 1314 1311 1307 1304 1301 1297 1294 1290 1287 1283 1279 1275 1272 1268 1265 1261 1258 1254 1251 1248 1245 1242 1239 1236 1234 1231 1228 1226 1224 1222 1221 1220 1219 1219 1218 1218 1219 1219 1219 1220 1220 1221 1222 1223 1224 1226 1228 1229 1232 1234 1236
1369 1369 1368 1368 1367 1366 1365 1364 1363 1362 1361 1360 1359 1358 1357 1356 1354 1353 1352 1350 1349 1347 1345 1343 1341 1339 1337 1335 1332 1329 1327 1324 1321 1318 1315 1312 1309 1306 1302 1299 1295 1292 1289 1285 1282 1278 1274 1270 1267 1263 1260 1256 1252 1249 1246 1244 1241 1238 1235 1233 1230 1228 1226 1224 1223 1221 1221 1220 1220 1220 1220 1220 1221 1221 1222 1222 1224 1225 1226 1227 1229 1231 1233 1235 1237
1367 1366 1366 1365 1364 1364 1363 1362 1361 1360 1359 1358 1357 1356 1355 1354 1352 1351 1350 1349 1347 1346 1344 1342 1340 1338 1336 1334 1331 1329 1326 1324 1321 1318 1315 1313 1310 1307 1304 1301 1297 1294 1291 1287 1284 1280 1277 1273 1269 1266 1262 1259 1255 1252 1248 1246 1243 1240 1238 1235 1233 1231 1229 1227 1225 1224 1223 1223 1222 1222 1222 1222 1222 1223 1224 1224 1226 1227 1228 1229 1231 1232 1234 1236 1238
1364 1364 1363 1363 1362 1361 1361 1360 1359 1358 1357 1356 1355 1354 1353 1352 1351 1350 1349 1347 1346 1344 1343 1341 1339 1337 1335 1333 1331 1328 1326 1323 1321 1318 1315 1313 1310 1308 1305 1302 1299 1296 1293 1289 1286 1283 1280 1276 1272 1269 1265 1262 1258 1255 1252 1249 1246 1243 1241 1239 1236 1234 1232 1230 1228 1227 1226 1225 1225 1225 1224 1224 1224 1225 1226 1227 1228 1229 1230 1232 1233 1234 1236 1238 1240
1362 1361 1361 1360 1360 1359 1359 1358 1357 1356 1355 1354 1353 1352 1351 1350 1349 1348 1347 1345 1344 1343 1341 1340 1338 1336 1334 1332 1330 1328 1325 1323 1321 1318 1316 1313 1311 1308 1306 1303 1300 1297 1294 1291 1288 1285 1282 1279 1275 1272 1268 1265 1262 1259 1255 1253 1250 1247 1245 1242 1240 1237 1235 1233 1232 1230 1229 1228 1228 1228 1227 1227 1227 1228 1228 1229 1231 1232 1233 1234 1236 1237 1239 1240 1242